STARLINK-32842, 62822

Orbit data source: Space-Track

STARLINK-32842, 62822 is a payload satellite owned by SpaceX/Seattle (US) in LEO that was launched on Fri, 24 Jan 2025 UTC via an FALCON 9 launch vehicle from the Air Force Western Test Range (AFWTR). Payload-class satellites include a variety of spacecraft equipped with specific instruments for various scientific and technological missions. These include communications satellites like Starlink; space stations such as the ISS; scientific satellites like the Hubble; Earth observation satellites from companies like Planet Labs, Umbra, and HawkEye 360; GPS; miniature CubeSats for education and research; and military/defense satellites.

Loading next visibility...
Identifier
62822, 2025-018S
Orbit
LEO
Country
Flag of USUS
Related business
Manufacturer
SpaceX/Seattle
Mission
Operational Commercial Communications
Bus & Motor
STARLINK V2M, Unknown motor
Mass
730 kg wet, ~700 kg dry
Launch date (UTC)
2025-01-24 (1 year ago)
Launch vehicle
FALCON 9
Launch site
Air Force Western Test Range (AFWTR)
Object type
Payload
Rocket body
Debris
Shape & HBR
Box + 2 Pan, 17.7 m
Radar Cross Section
33.884 m², Large (>1 m²)

Expand to show TLE details & history
Last TLE update: 11 hours ago

TLE from 11 hours ago
0 STARLINK-32842
1 62822U 25018S   26035.47414850  .00023823  00000-0  81417-3 0  9997
2 62822  53.1571 103.8306 0001137  86.9222 273.1908 15.30188565 58090
Epoch: 2026-02-04T11:22Z
TLE epoch observation values (Epoch: 2026-02-04T11:22:46.430Z)
Latitude
-0.00008°
Longitude
158.49687°
Altitude
476.105 km
Speed
7.629 km/s
True Right ascension
06h 55m 19s
True Declination
0° 00' 00"
Sunlit
Object was in full shadow at epoch
Visualization orbit readout
Latitude
Unknown
Longitude
Unknown
Altitude
Unknown
Speed
Unknown
Apparent Right ascension
Unknown
Apparent Declination
Unknown
Sunlit
N/A
Visualization observer readout
Local Sidereal Time
00:43:58
Azimuth
Unknown
Elevation
Unknown
Doppler factor
Unknown
Orbital elements
Apogee altitude
476.285 km
Perigee altitude
474.727 km
Semi-major axis
6,853.643 km
Eccentricity
0.00011
Inclination
53.1571°
RAAN
103.8306°
Arg. of periapsis
86.9222°
True anomaly
273.17779°
Mean anomaly
273.1908°
Eccentric anomaly
273.1843°
Mean motion
3.82526 °/min
Orbital period
94.11 mins
BSTAR
0.00081417
Loading maneuver chart data...
Computing Atmospheric mass density...
Loading historical data...
Loading historical data...
Loading historical data...
Loading historical data...
Loading historical data...
Loading historical data...
Loading historical data...

Documentation

Showing up to 5 results
|